C/2014 R3 ( PanSTARRS )

Japanese version
Home page
Updated on April 17, 2020

---------------------------------------------------------------------

* Profile

Discovery Date September 6, 2014
Magnitude 20.1 mag
Discoverer Pan-STARRS 1 telescope (Haleakala)

* Pictures

* Orbital Elements

Epoch 2016 July 31.0 TT = JDT 2457600.5
T 2016 Aug. 7.89627 TT                                  Rudenko
q   7.2753956            (2000.0)            P               Q
z  +0.0000141      Peri.  113.40110     -0.36316683     -0.82311688
 +/-0.0000005      Node   334.11215     -0.21699426     +0.53039173
e   0.9998971      Incl.   90.83748     +0.90610339     -0.20288721
From 813 observations 2014 Sept. 6-2020 Feb. 27, mean residual 0".5.

* Magnitudes Graph

        m1 = -16   + 5 log d + 33   log r(t - 100)  [   ,100]  (             - 2016 Nov. 15)
        m1 =  -0.5 + 5 log d + 15.0 log r(t - 100)  [100,   ]  (2016 Nov. 15 -             )

---------------------------------------------------------------------

The orbital elements are published on M.P.E.C. 2020-E26.
The magnitudes graphs are made with Comet for Windows.

---------------------------------------------------------------------

Copyright(C) Seiichi Yoshida (comet@aerith.net). All rights reserved.